Regional Weather Roundup
Issued by NWS Little Rock, AR

Home | Current Version | Previous Version | Graphics & Text | Print | Product List | Glossary On
Versions: 1 2 3 4 5 6 7 8 9 10 11 12 13 14 15 16 17 18 19 20 21 22 23 24 25 26 27 28 29 30 31 32 33 34 35 36 37 38 39 40 41 42 43 44 45 46 47 48 49 50
000
ASUS44 KLZK 300105
RWRLZK

WEATHER ROUNDUP FOR ARKANSAS
NATIONAL WEATHER SERVICE LITTLE ROCK AR
800 PM CDT MON SEP 29 2014

NOTE: "FAIR" INDICATES FEW OR NO CLOUDS BELOW 12,000 FEET WITH NO
SIGNIFICANT WEATHER AND/OR OBSTRUCTIONS TO VISIBILITY.

ARZ001-003-010-029-300200-
NORTHWEST ARKANSAS

CITY           SKY/WX    TMP DP  RH WIND       PRES   REMARKS
FAYETTEVILLE   CLEAR     67  62  84 S3        29.98S
FORT SMITH     CLEAR     75  62  64 CALM      29.93S
HARRISON       CLEAR     70  61  73 CALM      29.99S
BENTONVILLE    CLEAR     72  55  56 CALM      29.98S
ROGERS         PTCLDY    72  59  63 CALM      29.99S
SILOAM SPGS    CLEAR     73  57  56 S5        29.98S
HIGHFILL       CLEAR     71  57  61 S6        29.98R
$$

ARZ004-005-016-300200-
NORTH CENTRAL ARKANSAS

CITY           SKY/WX    TMP DP  RH WIND       PRES   REMARKS
BATESVILLE     CLEAR     75  55  50 CALM      29.95R
FLIPPIN        CLEAR     72  55  56 CALM      29.96S
MTN HOME       CLEAR     74  59  59 CALM      29.96S
$$

ARZ040-041-300200-
WEST CENTRAL ARKANSAS

CITY           SKY/WX    TMP DP  RH WIND       PRES   REMARKS
MENA             N/A     68  64  88 CALM      29.97S
MOUNT IDA      CLEAR     69  63  81 CALM      29.94S
$$

ARZ009-017-025-026-028-300200-
NORTHEAST ARKANSAS

CITY           SKY/WX    TMP DP  RH WIND       PRES   REMARKS
CORNING          N/A     72  55  56 CALM      29.95R HAZE
JONESBORO      CLEAR     69  57  65 CALM      29.94R
NEWPORT        CLOUDY    73  56  55 E3        29.95S
WALNUT RIDGE   CLEAR     72  55  56 E3        29.94R
BLYTHEVILLE    CLEAR     71  58  63 CALM      29.94S
$$

ARZ022-023-033-042-044-300200-
CENTRAL ARKANSAS

CITY           SKY/WX    TMP DP  RH WIND       PRES   REMARKS
LITTLE ROCK    PTCLDY    76  60  57 CALM      29.93S
N LITTLE ROCK  PTCLDY    74  62  64 CALM      29.93S
JACKSONVILLE   CLEAR     71  63  76 CALM      29.93S
SEARCY         CLEAR     71  61  70 CALM      29.95R
HOT SPRINGS    CLEAR     72  60  66 CALM      29.94F
RUSSELLVILLE   PTCLDY    71  64  78 CALM      29.93S
CLINTON        FAIR      70  64  83 CALM      29.95S
$$

ARZ036-300200-
EAST ARKANSAS

CITY           SKY/WX    TMP DP  RH WIND       PRES   REMARKS
WEST MEMPHIS     N/A     70  60  70 CALM      29.92S
$$

ARZ050-053-066-070-073-300200-
SOUTHWEST ARKANSAS

CITY           SKY/WX    TMP DP  RH WIND       PRES   REMARKS
ARKADELPHIA    FAIR      71  68  90 CALM      29.93S
CAMDEN         CLEAR     72  63  73 CALM      29.92R
TEXARKANA      CLEAR     71  62  73 CALM      29.93S
EL DORADO      CLEAR     70  64  81 CALM      29.92R
DE QUEEN       CLEAR     70  66  87 E3        29.91S
$$

ARZ056-057-069-300200-
SOUTHEAST ARKANSAS

CITY           SKY/WX    TMP DP  RH WIND       PRES   REMARKS
PINE BLUFF     CLEAR     74  60  61 CALM      29.93S
STUTTGART      CLEAR    N/A N/A N/A NE3       29.93S
MONTICELLO     CLEAR     73  63  70 CALM      29.92S

$$




USA.gov is the U.S. government's official web portal to all federal, state and local government web resources and services.